Content
SEND FEEDBACK

Daily
Averages
Monthly
Summary
Canada

MONTREAL, QUEBEC


Home > North America > Canada > Quebec
Elevation: 118 feet     Latitude: 45 28N     Longitude: 073 45W

WEATHER
 
SELECT A DAY
Number of Records: 202,573;   Date Range: 1/1/95 - 11/26/14
 
SHARE

PRINT THIS DATA

[ ← Previous Day ]
WEATHER ALMANAC - NOVEMBER 12, 2013
[ Next Day → ]
[ °C ]   °F
Weather ElementAverageHighLow
Temperature27 °F32 °F (2:00 pm)23 °F (11:00 pm)
Dewpoint15.8 °F19.4 °F (7:00 am)12.2 °F (9:00 am)
Humidity61.5 %74 % (1:00 am)46 % (7:00 pm)
Barometer30.13 in30.27 in (10:00 pm)29.99 in (1:00 am)
Wind Speed17.2 mph23 mph (12:00 pm)
Wind Gust32.2 mph (10:24 am)
Weather ElementAverage
Visibility15 mi
Wind DirectionW (272.2 °)

Weather ElementTotal
Precipitation---
Heating Degree Days37.5 (Base 65)
Averaged from 32 records on November 12, 2013
WEATHER CONDITIONS BREAKOUT
WIND DIRECTION BREAKOUT
WEATHER BY HOUR - NOVEMBER 12, 2013
[ °C ]   °F
Local TimeTemperatureDewpointHumidityBarometerVisibilityWind DirectionWind SpeedGust SpeedPrecipitationEventsConditions
1:00 AM26.0 °F17.0 °F57 %30.00 in15.0 miWNW (300°)18.4 mphPartly Cloudy
1:00 AM24.8 °F17.6 °F74 %29.99 in15.0 miWNW (290°)19.6 mph25.3 mphMostly Cloudy
2:00 AM24.8 °F15.8 °F69 %30.03 in15.0 miWNW (290°)16.1 mph28.8 mphMostly Cloudy
2:34 AM24.8 °F15.8 °F69 %30.04 in15.0 miWest (280°)18.4 mph24.2 mphSnowLight Snow Showers
3:00 AM24.8 °F15.8 °F69 %30.05 in15.0 miWest (280°)18.4 mph25.3 mphSnowLight Snow
4:00 AM24.8 °F15.8 °F69 %30.06 in15.0 miWest (280°)15.0 mphSnowLight Snow
5:00 AM26.6 °F14.0 °F59 %30.07 in15.0 miWest (270°)16.1 mph27.6 mphSnowLight Snow
6:00 AM24.8 °F17.6 °F74 %30.07 in15.0 miWSW (240°)11.5 mph18.4 mphOvercast
6:15 AM26.6 °F17.6 °F69 %30.08 in15.0 miWSW (240°)12.7 mphSnowLight Snow
7:00 AM26.0 °F18.0 °F63 %30.10 in15.0 miWest (270°)16.1 mphSnowLight Snow
7:00 AM26.6 °F19.4 °F74 %30.10 in15.0 miWest (270°)13.8 mph24.2 mphSnowLight Snow
8:00 AM26.6 °F14.0 °F59 %30.12 in15.0 miWest (270°)16.1 mph25.3 mphSnowLight Snow
8:23 AM26.6 °F14.0 °F59 %30.12 in15.0 miWest (270°)20.7 mph26.5 mphMostly Cloudy
9:00 AM26.6 °F12.2 °F55 %30.12 in15.0 miWest (270°)18.4 mph28.8 mphMostly Cloudy
10:00 AM26.6 °F14.0 °F59 %30.13 in15.0 miWest (280°)20.7 mph28.8 mphSnowLight Snow Showers
10:24 AM28.4 °F14.0 °F55 %30.14 in15.0 miWest (270°)19.6 mph32.2 mphMostly Cloudy
11:00 AM28.4 °F14.0 °F55 %30.13 in15.0 miWest (280°)20.7 mph29.9 mphMostly Cloudy
12:00 PM28.4 °F15.8 °F59 %30.12 in15.0 miWest (280°)23.0 mph29.9 mphMostly Cloudy
12:19 PM30.2 °F15.8 °F55 %30.12 in15.0 miWest (270°)20.7 mph29.9 mphSnowLight Snow Showers
1:00 PM30.0 °F18.0 °F48 %30.12 in15.0 miWest (260°)20.7 mphSnowLight Snow Showers
1:00 PM30.2 °F17.6 °F60 %30.12 in15.0 miWest (260°)17.3 mph29.9 mphSnowLight Snow Showers
2:00 PM32.0 °F17.6 °F55 %30.12 in15.0 miWest (260°)20.7 mph29.9 mphSnowLight Snow Showers
3:00 PM30.2 °F15.8 °F55 %30.14 in15.0 miWest (270°)21.9 mph27.6 mphMostly Cloudy
4:00 PM30.2 °F15.8 °F55 %30.17 in15.0 miWest (270°)17.3 mph28.8 mphMostly Cloudy
5:00 PM28.4 °F17.6 °F64 %30.19 in15.0 miWest (270°)12.7 mph18.4 mphMostly Cloudy
6:00 PM28.4 °F14.0 °F55 %30.21 in15.0 miWest (280°)16.1 mph24.2 mphPartly Cloudy
7:00 PM27.0 °F15.0 °F46 %30.23 in15.0 miWest (270°)13.8 mphPartly Cloudy
7:00 PM26.6 °F14.0 °F59 %30.22 in15.0 miWest (270°)17.3 mph23.0 mphPartly Cloudy
8:00 PM26.6 °F15.8 °F64 %30.24 in15.0 miWest (270°)17.3 mphPartly Cloudy
9:00 PM24.8 °F15.8 °F69 %30.25 in15.0 miWest (280°)12.7 mph23.0 mphPartly Cloudy
10:00 PM24.8 °F15.8 °F69 %30.27 in15.0 miWest (270°)13.8 mph23.0 mphPartly Cloudy
11:00 PM23.0 °F14.0 °F68 %30.27 in15.0 miWest (280°)12.7 mph21.9 mphPartly Cloudy
Hourly data recorded from CYUL, located miles away from Montreal, Quebec







STORIES FROM OUR PARTNERS